Regional Weather Roundup
Issued by NWS

Home | Current Version | Previous Version | Graphics & Text | Print | Product List | Glossary On
Versions: 1 2 3 4 5 6 7 8 9 10 11 12 13 14 15 16 17 18 19 20 21 22 23 24 25 26 27 28 29 30 31 32 33 34 35 36 37 38 39 40 41 42 43 44 45 46 47 48 49 50
000
ASUS43 KDTX 200201
RWRMI
MICHIGAN HOURLY REGIONAL WEATHER ROUNDUP
NATIONAL WEATHER SERVICE DETROIT/PONTIAC MI
1000 PM EDT SUN OCT 19 2014

NOTE: "FAIR" INDICATES FEW OR NO CLOUDS BELOW 12,000 FEET WITH NO
SIGNIFICANT WEATHER AND/OR OBSTRUCTION TO VISIBILITY.

MIZ047>049-052>055-059>063-066>070-074>076-081>083-200300-
SOUTHEAST LOWER MICHIGAN

CITY           SKY/WX    TMP DP  RH WIND       PRES   REMARKS
ADRIAN         MOCLDY    47  37  68 SW7       30.01F
ALMA           CLOUDY    48  38  69 S7        29.94F
ANN ARBOR      MOCLDY    45  35  68 SW6       29.99F
CARO           MOCLDY    45  38  77 S5        29.95S
DETROIT CITY   MOCLDY    51  31  46 SW10      30.00F
DETROIT        CLOUDY    47  33  58 S9        30.00F
FLINT          MOCLDY    49  35  58 S8        29.96F
GROSSE ILE     CLOUDY    50  36  57 S9        30.00F
HILLSDALE      CLOUDY    48  37  66 S6        29.98F
HOWELL         MOCLDY    45  35  66 S7        29.97F

CITY           SKY/WX    TMP DP  RH WIND       PRES   REMARKS
JACKSON        CLOUDY    47  36  65 S6        29.98F
LAMBERTVILLE   CLOUDY    46  34  61 S5        30.01F
LANSING        CLOUDY    48  37  65 S10       29.96F
LAPEER         FAIR      44  36  72 S5        29.97F
MASON          CLOUDY    47  37  69 S3        29.96F
MONROE         CLOUDY    46  34  61 S6        29.99F
MT. CLEMENS    CLOUDY    47  31  55 S9        29.97F
PONTIAC        CLOUDY    47  34  60 S7        29.97F
PORT HOPE        N/A     46  35  65 S5        29.93F
PORT HURON     MOCLDY    41  36  81 CALM      29.99F
TRI CITIES     CLOUDY    50  38  63 S10       29.94F
TROY           MOCLDY    49  31  49 S8        30.00F
SAGINAW HB     CLOUDY    50  36  57 S9        29.94F
$$
MIZ043>046-050>051-056>058-064>065-071>073-077>080-200300-
SOUTHWEST LOWER MICHIGAN

CITY           SKY/WX    TMP DP  RH WIND       PRES   REMARKS
BATTLE CREEK   PTCLDY    48  38  68 S10       29.97F
BENTON HARBOR  PTCLDY    48  40  73 S7        29.96F
BIG RAPIDS     CLOUDY    47  44  88 SW8       29.91S
COLDWATER      CLOUDY    48  38  66 S6        29.99S
FREMONT        CLOUDY    46  41  83 S3        29.92S
HOLLAND        CLOUDY    49  40  71 S8        29.94F
GRAND RAPIDS   MOCLDY    48  38  68 S10       29.94F
IONIA          MOCLDY    47  38  71 SW7       29.94F
KALAMAZOO      PTCLDY    47  39  74 S10       29.97F
LUDINGTON      RAIN      52  47  84 SW16G25   29.89F
MARSHALL       MOCLDY    47  37  68 S5        29.97S
MOUNT PLEASANT CLOUDY    47  37  65 S6        29.92F
MUSKEGON       MOCLDY    54  44  69 SW16G25   29.93S
SOUTH HAVEN    CLEAR     48  41  75 S7        29.95F
$$
MIZ016>042-200300-
NORTHERN LOWER MICHIGAN

CITY           SKY/WX    TMP DP  RH WIND       PRES   REMARKS
ALPENA         CLOUDY    46  39  76 S7        29.90F
BEAVER ISLAND  CLOUDY    48  46  90 S9G18     29.83F
BELLAIRE       LGT RAIN  48  40  76 S5        29.89F
CADILLAC       CLOUDY    45  41  86 SW9G16    29.89S
CHARLEVOIX     RAIN      47  44  87 S7        29.89F
FRANKFORT      CLOUDY    51  44  75 S8G20     29.86F
GAYLORD        CLOUDY    44  37  76 SW14      29.88S
GRAYLING       LGT RAIN  45  40  83 S9        29.89F
HARBOR SPRINGS DRIZZLE   48  40  73 SW8       29.87F
HOUGHTON LAKE  LGT RAIN  46  39  76 SW8       29.91S
MANISTEE       CLOUDY    48  43  81 S3        29.88F
OSCODA         CLOUDY    48  38  69 SW7       29.92S
PELLSTON       LGT RAIN  47  40  76 S5        29.87F
TRAVERSE CITY  LGT RAIN  47  42  83 S5        29.87F
$$
MIZ007>008-015-200300-
EASTERN UPPER MICHIGAN

CITY           SKY/WX    TMP DP  RH WIND       PRES   REMARKS
KINROSS        CLOUDY    45  43  93 SE8       29.85F
MACKINAC ISLAN DRIZZLE   47  40  76 S8        29.85F
NEWBERRY       CLOUDY    46  45  95 SW12G20   29.80F
S. S. MARIE    LGT RAIN  43  40  89 SE5       29.85F
MUNISING         N/A     50  45  83 S9        29.76F
$$
MIZ004>006-011>014-085-200300-
CENTRAL UPPER MICHIGAN

CITY           SKY/WX    TMP DP  RH WIND       PRES   REMARKS
MANISTIQUE     CLOUDY    49  47  92 SW15G21   29.79F
ESCANABA       CLOUDY    52  46  82 SW7       29.77F
MENOMINEE      MOCLDY    52  41  66 SW6       29.78F
SAWYER-GWINN   CLOUDY    45  43  93 S7        29.76F
$$
MIZ001>003-009>011-084-200300-
WESTERN UPPER MICHIGAN

CITY           SKY/WX    TMP DP  RH WIND       PRES   REMARKS
IRON MOUNTAIN  CLOUDY    46  42  86 CALM      29.75F
HOUGHTON       CLOUDY    45  42  89 NW6       29.72F
COPPER HARBOR    N/A     46  43  89 VRB5      29.72F
IRONWOOD       CLOUDY    52  45  76 SW5       29.71F
$$

ABBREVIATIONS USED IN REMARKS
   TC - TEMPERATURE IN CELSIUS
  WCI - WIND CHILL INDEX
   HX - HEAT INDEX
  VSB - VISIBILITY



USA.gov is the U.S. government's official web portal to all federal, state and local government web resources and services.